CZ-6A DEB, 54344

Orbit data source: Space-Track

CZ-6A DEB, 54344 is space debris in SSO originally from a launch on Fri, 11 Nov 2022 UTC launched from the Taiyaun Space Center, China (TSC). Debris objects in space refer to the collection of defunct objects orbiting the Earth. Examples of debris include non-operational satellites, rocket bodies, and fragments generated from explosions, collisions, or faulty payload assembly.

Loading next visibility...
Identifier
54344, 2022-151CP
Orbit
SSO
Country
Flag of CNCN / PRC
Related business
Manufacturer
SAST
Mission
Spacecraft
Bus & Motor
Unknown
Mass
Unknown
Launch date (UTC)
2022-11-11 (4 years ago)
Launch vehicle
Unknown
Launch site
Taiyaun Space Center, China (TSC)
Object type
Payload
Rocket body
Debris
Shape & HBR
Unknown shape, 0.2 m
Radar Cross Section
Medium (>0.1 m² and <1 m²)

Expand to show TLE details & history
Last TLE update: 6 hours ago

TLE from 6 hours ago
0 CZ-6A DEB
1 54344U 22151CP  26207.57290342  .00000150  00000-0  11377-3 0  9998
2 54344  98.8639 203.2676 0055261 248.4222 111.1053 14.07300043189646
Epoch: 2026-07-26T13:44Z
TLE epoch observation values (Epoch: 2026-07-26T13:44:58.855Z)
Latitude
0.00001°
Longitude
52.75347°
Altitude
886.133 km
Speed
7.402 km/s
True Right ascension
13h 33m 04s
True Declination
0° 00' 00"
Sunlit
Object was in daylight at epoch
Visualization orbit readout
Latitude
Unknown
Longitude
Unknown
Altitude
Unknown
Speed
Unknown
Apparent Right ascension
Unknown
Apparent Declination
Unknown
Sunlit
N/A
Visualization observer readout
Local Sidereal Time
09:25:08
Azimuth
Unknown
Elevation
Unknown
Doppler factor
Unknown
Orbital elements
Apogee altitude
905.839 km
Perigee altitude
825.778 km
Semi-major axis
7,243.946 km
Eccentricity
0.00553
Inclination
98.8639°
RAAN
203.2676°
Arg. of periapsis
248.4222°
True anomaly
111.69459°
Mean anomaly
111.1053°
Eccentric anomaly
111.40009°
Mean motion
3.52031 °/min
Orbital period
102.26 mins
BSTAR
0.00011377
Loading maneuver chart data...
Computing Atmospheric mass density...

Documentation

Showing up to 5 results
|